GFSFLT1_prec_cthk_000.txt.gz
RH
51 53 51 57 52 48 51 58 59 70 71 62 66 64 66 73 72 71 67 73 69 67 66 63 66 64 59 54 54 52 42 39
47 54 58 54 54 55 54 58 72 80 75 63 66 67 74 73 71 68 71 72 69 72 70 69 65 63 60 56 50 45 43 41
43 48 51 55 52 54 60 64 66 67 70 69 70 73 70 68 69 70 71 72 81 86 83 73 68 66 62 56 55 49 43 39
45 50 54 55 54 57 60 62 66 70 71 73 72 68 65 64 70 81 76 76 78 74 72 67 60 54 52 47 44 43 42 40
43 46 48 48 53 60 65 66 68 71 74 71 68 66 69 75 72 64 59 59 59 60 59 57 54 50 47 45 45 46 44 41
51 53 54 56 59 62 66 68 70 67 65 66 67 69 69 64 60 55 56 56 58 57 53 53 52 49 48 48 49 47 47 52
53 56 58 60 63 69 72 69 64 62 63 64 63 60 56 58 59 60 58 60 58 57 57 55 53 53 54 56 57 59 56 54
60 63 66 65 65 66 65 64 64 65 65 62 60 61 62 64 65 64 64 60 63 61 61 60 58 57 59 58 56 56 53 48
59 60 60 62 62 59 59 58 58 60 62 63 65 66 66 67 69 72 68 63 64 64 57 51 52 49 50 47 45 49 51 54
60 70 72 63 63 61 57 57 60 65 66 64 61 61 65 71 71 69 71 72 69 61 54 49 49 40 41 44 50 56 57 61
74 75 68 65 65 62 63 64 62 65 68 63 65 72 73 70 70 67 68 57 48 41 42 38 38 42 47 53 56 63 69 75
71 72 65 64 64 63 66 64 66 66 65 67 74 74 70 69 65 53 45 38 29 28 33 36 41 49 52 60 71 76 79 83
61 63 65 65 70 70 68 67 68 68 69 70 70 70 68 61 50 44 37 30 32 38 44 45 47 52 55 59 61 63 66 74
61 61 63 63 63 63 61 61 62 62 64 65 61 61 55 53 47 44 39 38 44 46 45 46 46 46 45 46 45 46 45 43
62 66 62 61 59 55 56 59 58 59 60 63 54 57 49 44 44 41 43 46 45 44 49 52 51 52 51 48 45 42 39 37
67 66 62 59 54 51 51 51 53 55 62 71 55 50 47 45 45 47 47 47 47 52 53 50 52 52 50 47 43 44 48 47
66 62 58 59 53 48 44 44 48 58 56 54 50 70 84 77 79 69 54 54 56 60 54 53 52 52 52 53 51 59 64 66
61 59 59 53 46 41 42 40 36 41 45 54 59 77 87 86 77 60 64 61 65 63 55 55 56 57 59 55 58 68 74 74
60 53 49 50 46 44 38 32 27 30 44 59 66 68 70 78 61 70 71 75 78 54 54 59 60 61 62 66 66 77 82 82

GFSFLT1_prec_cthk_003.txt.gz
RH
44 45 47 46 48 61 55 59 65 62 67 68 71 72 66 67 69 69 65 63 62 65 68 67 62 61 64 60 58 53 51 52
42 44 47 52 61 61 61 59 59 66 70 75 69 73 72 72 71 67 62 60 63 64 58 56 53 49 53 53 53 51 47 47
44 48 53 57 64 69 71 62 62 65 67 70 70 75 74 70 67 62 64 64 64 56 56 54 50 49 50 48 47 44 41 42
41 46 51 54 56 58 63 62 60 63 69 72 75 72 64 61 62 66 63 60 56 57 56 54 54 53 51 49 50 50 46 45
42 46 45 45 47 49 53 60 65 67 68 70 66 61 61 63 65 60 58 56 57 57 57 57 56 54 54 56 52 50 49 48
41 41 44 47 51 53 56 58 60 65 65 60 58 61 59 53 52 53 56 57 57 57 59 60 60 60 55 53 49 48 46 47
46 47 49 53 56 59 60 60 59 55 52 50 49 48 48 48 48 47 49 52 56 59 62 64 64 60 57 53 48 47 50 52
52 54 55 55 56 56 55 55 54 52 51 51 52 52 52 51 50 54 55 58 63 64 58 56 53 51 45 43 43 40 41 44
57 62 65 68 65 65 59 57 56 55 56 54 52 54 59 63 56 72 69 67 64 59 50 46 42 38 39 39 39 41 47 50
61 62 64 70 69 66 61 58 60 60 59 60 65 68 68 69 76 82 69 64 60 51 51 39 36 39 39 39 41 43 48 52
67 62 62 62 62 60 60 60 62 65 64 68 69 74 75 75 75 62 61 55 54 53 38 32 32 34 39 44 46 44 46 53
65 62 57 58 60 60 60 62 62 61 64 63 59 59 56 55 56 49 49 46 45 36 34 32 34 38 38 37 38 37 34 35
60 57 57 58 57 57 56 54 53 49 43 43 42 45 56 58 57 51 43 47 41 40 33 37 36 40 42 40 40 44 42 43
57 60 56 56 55 57 54 52 48 41 42 44 46 46 60 76 74 60 63 72 70 62 46 40 41 43 44 44 47 47 46 48
63 64 61 58 56 55 51 41 39 39 35 38 42 40 52 71 64 69 82 94 82 53 49 40 47 43 46 44 45 46 51 56
61 58 56 57 55 52 42 37 35 32 27 28 35 50 58 65 80 78 97 86 68 63 56 51 49 42 45 49 55 55 57 57
59 57 57 54 51 43 42 39 35 30 28 25 26 35 49 64 67 98 85 70 70 73 58 49 39 46 52 60 60 60 65 71
59 57 52 46 42 45 43 38 34 29 25 23 30 41 46 54 67 90 93 89 76 74 52 39 46 55 60 60 60 65 78 87
56 49 44 44 47 44 38 34 29 28 22 21 28 35 39 48 67 93 94 87 76 57 41 45 54 60 59 53 58 80 91 94

GFSFLT1_prec_cthk_006.txt.gz
RH
48 55 55 52 52 67 76 71 73 81 74 66 67 74 74 73 75 75 76 70 67 64 64 65 60 54 52 50 47 45 44 41
48 51 53 58 68 74 71 79 82 71 66 71 75 74 75 75 75 77 73 69 66 67 63 56 53 51 52 49 46 45 44 40
55 59 66 75 70 68 70 67 65 68 74 75 74 73 73 76 79 75 71 65 61 56 55 53 51 51 49 50 49 46 45 46
60 61 60 60 62 64 61 63 65 67 70 72 72 73 74 73 67 65 62 57 53 50 48 48 48 48 48 51 53 55 53 51
57 54 50 47 50 51 53 58 62 63 64 65 67 67 63 58 56 52 50 48 46 46 49 51 52 53 53 55 55 52 50 46
48 47 46 46 48 49 51 54 57 59 58 55 51 49 48 48 47 46 50 54 56 53 57 61 65 63 48 42 45 46 46 48
47 48 48 50 50 51 53 53 51 52 51 51 49 47 47 46 48 51 54 57 59 58 69 63 61 55 44 43 41 41 42 42
61 55 52 51 53 58 59 60 60 56 52 49 49 48 49 52 55 57 67 65 78 58 60 56 56 46 35 34 35 36 36 44
60 62 60 60 58 56 54 54 57 57 56 58 58 59 61 60 64 65 75 72 73 57 55 49 46 41 32 28 26 28 32 37
64 67 67 64 58 55 58 60 63 62 61 62 65 67 62 60 61 42 42 43 49 56 60 52 37 28 30 35 41 38 32 35
70 70 67 58 60 62 63 62 61 61 62 60 57 50 43 39 36 39 52 56 61 70 68 55 47 50 51 51 52 30 34 37
73 71 67 63 64 63 60 61 59 58 57 48 36 36 39 42 44 45 53 62 84 79 71 72 68 59 53 52 43 34 38 40
72 70 67 67 64 62 63 60 56 51 41 36 36 38 40 44 46 49 56 63 71 80 88 80 72 61 53 46 36 43 40 40
73 67 67 62 56 55 55 55 50 39 32 31 29 28 28 32 43 42 51 66 80 93 80 72 68 63 56 49 39 40 44 49
70 66 63 60 59 56 53 46 37 36 33 31 29 26 23 26 38 48 70 72 73 70 78 77 72 63 49 45 45 46 49 52
71 67 64 62 57 51 41 38 39 37 34 30 27 21 20 26 36 41 47 59 62 73 85 81 68 53 50 51 49 51 53 51
69 67 63 57 48 43 42 41 38 35 31 30 26 22 21 24 27 34 48 59 67 88 92 78 54 47 53 51 53 51 46 51
71 66 58 50 45 45 45 40 36 34 33 28 23 21 23 28 33 46 56 72 82 90 75 66 47 53 51 52 50 46 47 66
65 59 52 48 47 46 45 38 36 32 28 24 24 24 26 32 44 55 76 86 83 75 70 54 51 49 50 50 49 43 56 72

GFSFLT1_prec_cthk_009.txt.gz
RH
44 51 55 61 61 68 82 82 81 86 84 76 69 73 79 79 78 75 76 77 73 68 69 60 50 48 44 41 39 38 39 38
48 52 57 62 65 70 74 76 74 78 71 72 75 78 75 78 75 78 77 73 70 62 53 51 49 45 40 39 41 41 40 39
59 61 68 70 68 67 75 71 70 71 68 70 74 80 78 76 75 77 72 64 58 54 51 48 43 42 44 45 46 43 42 43
68 67 67 67 69 64 60 60 66 67 70 70 66 66 68 69 68 63 57 52 50 48 48 50 50 50 49 48 50 52 54 54
59 60 55 54 53 52 53 54 56 58 60 61 63 64 64 60 55 52 52 54 52 51 52 52 53 55 59 54 46 40 38 37
58 52 54 54 56 55 56 58 60 62 59 59 59 57 54 52 52 52 52 52 51 50 56 60 64 57 54 52 48 33 32 35
56 59 64 62 55 53 58 63 64 65 62 57 55 54 52 51 53 54 54 55 56 58 70 57 57 58 53 54 48 32 31 33
68 65 58 58 59 60 57 57 54 51 52 53 52 53 57 59 59 57 58 56 49 46 43 45 49 51 48 41 37 37 39 42
65 56 60 64 65 63 56 52 52 56 57 56 56 56 61 59 58 54 49 40 37 42 51 59 60 66 58 51 50 52 50 50
53 61 68 66 66 60 57 56 56 57 57 59 55 53 51 45 42 37 36 36 40 51 62 69 74 75 70 65 57 65 59 45
62 70 76 72 69 65 63 64 64 62 57 51 47 43 40 35 34 33 35 40 46 51 54 56 67 74 74 71 65 63 53 50
66 72 76 77 79 74 69 66 64 60 54 44 36 31 30 30 27 26 31 39 47 54 50 58 75 71 69 74 70 61 50 43
71 78 79 84 78 71 70 67 63 57 45 40 36 34 29 24 21 23 33 43 48 52 56 62 65 71 65 61 62 49 46 47
72 76 75 76 73 72 69 65 55 48 44 39 35 30 26 21 18 20 26 28 32 44 49 51 53 67 69 69 50 47 51 51
71 70 71 69 74 72 64 56 53 46 40 37 33 27 23 21 21 22 26 30 40 44 50 54 62 76 77 56 50 49 53 57
69 70 72 78 72 66 61 54 47 44 39 36 31 28 23 23 23 23 27 37 46 51 57 64 82 75 62 50 50 51 56 52
74 79 77 68 65 60 54 50 48 44 38 34 32 28 25 25 24 26 32 43 51 59 69 78 75 67 56 50 51 52 52 48
70 67 65 66 62 57 52 50 47 41 38 36 33 29 28 27 26 28 38 46 57 71 72 69 68 65 55 48 48 49 46 44
65 66 67 63 57 52 50 49 45 41 39 37 32 28 29 30 31 37 45 52 60 66 67 74 75 65 51 45 44 44 41 41

GFSFLT1_prec_cthk_015.txt.gz
RH
49 54 58 60 61 63 67 77 81 87 85 76 71 76 75 73 73 72 71 69 66 64 60 56 49 43 42 43 42 41 40 40
53 56 57 58 62 69 72 80 83 80 72 75 73 70 69 64 62 58 55 55 56 55 52 47 46 47 48 47 46 43 41 40
53 57 62 65 75 84 75 70 67 64 63 64 59 56 53 53 54 55 54 52 50 49 50 51 51 51 51 49 45 40 36 31
58 65 67 64 62 60 56 53 56 60 56 52 53 55 54 53 51 50 51 53 53 52 52 52 51 50 45 39 36 33 32 30
60 60 58 62 55 54 56 57 55 55 55 54 51 51 52 53 55 58 59 58 56 54 50 46 39 36 33 30 28 31 33 36
54 55 54 53 56 62 60 63 60 58 57 56 56 57 59 60 62 63 62 59 55 49 41 34 28 25 25 27 30 38 38 42
58 54 55 59 69 57 50 54 58 64 66 69 66 66 64 60 61 59 53 47 39 30 27 26 25 25 32 39 42 52 46 41
56 55 62 59 53 52 55 60 64 66 68 72 68 61 57 54 51 43 40 35 29 26 26 26 30 33 39 44 56 51 45 39
56 57 61 52 53 55 58 61 65 65 64 65 63 60 59 54 46 42 37 30 25 21 20 25 33 39 40 55 55 45 38 37
56 57 53 54 55 58 62 62 65 66 68 64 63 62 53 49 47 40 32 26 22 20 22 29 35 46 40 46 44 34 33 39
55 53 54 55 59 61 66 66 72 71 68 69 61 53 53 50 43 36 28 23 21 22 29 36 47 46 42 42 36 39 43 52
54 57 57 60 64 68 69 73 81 73 68 61 57 56 50 47 37 29 26 24 22 25 34 38 42 43 43 50 46 48 54 55
57 60 64 66 69 71 75 80 70 69 66 64 57 54 49 41 34 29 27 25 24 27 34 40 41 41 51 51 51 59 60 63
60 64 68 70 72 75 74 73 74 66 60 53 54 51 44 39 33 29 28 27 26 28 32 36 45 51 54 54 59 68 69 68
61 68 71 72 75 70 80 70 66 59 54 55 52 48 44 39 33 30 29 28 28 33 39 44 50 52 58 60 67 68 69 75
60 67 71 68 73 81 61 62 59 55 55 54 52 49 43 38 34 30 28 29 31 37 39 44 53 60 67 69 67 74 79 70
60 64 65 80 66 56 60 62 59 56 57 55 52 46 43 37 33 29 27 30 32 36 42 48 57 63 67 70 77 80 76 54
60 61 67 64 61 62 65 63 57 59 58 57 48 44 39 35 32 30 29 29 33 39 47 56 63 69 72 76 77 67 52 43
58 61 64 65 65 67 64 60 61 61 60 48 43 38 36 33 32 31 30 32 35 42 49 57 62 67 71 65 55 48 42 38

GFSFLT1_prec_cthk_021.txt.gz
RH
55 58 61 64 71 73 72 73 74 75 83 81 77 72 68 70 68 64 59 53 48 48 49 49 52 55 57 56 54 50 47 42
53 56 59 65 69 72 71 70 74 85 87 79 73 64 64 63 55 52 49 47 50 53 57 59 61 62 61 58 55 50 41 35
55 60 62 65 69 72 71 76 79 83 79 70 64 63 60 57 49 47 51 55 58 64 67 69 66 62 58 52 48 43 39 36
57 58 63 69 72 76 77 77 71 71 68 63 61 54 50 53 55 57 59 65 67 67 65 62 58 52 51 45 43 43 36 33
55 61 66 68 68 66 63 60 60 57 57 55 53 57 62 60 62 64 66 65 64 61 56 54 52 45 45 44 42 40 35 37
54 62 62 59 61 62 60 55 51 48 50 50 53 55 61 64 66 66 65 63 57 54 51 52 52 47 45 44 42 41 42 45
53 55 54 57 59 59 52 50 50 49 49 51 55 58 62 62 68 71 68 58 51 48 46 40 37 44 45 45 48 42 42 49
47 48 49 54 55 54 53 51 52 50 53 54 56 58 64 71 88 72 63 50 48 45 38 37 36 42 43 44 43 40 56 55
44 45 48 51 55 55 53 54 52 52 56 55 56 70 78 83 71 60 44 45 41 35 36 39 41 45 47 45 51 58 60 60
44 46 48 51 55 56 55 54 52 53 56 61 66 71 73 60 48 43 40 36 34 37 40 42 44 43 40 51 54 62 64 56
42 45 48 50 53 56 56 53 53 58 65 66 67 69 69 67 59 42 39 38 38 44 43 39 37 41 42 52 47 48 63 60
42 45 46 48 52 55 54 54 59 63 69 67 67 66 65 61 46 43 42 42 49 47 44 41 39 40 43 42 50 62 63 72
43 44 46 49 51 53 55 57 63 66 71 69 64 67 60 52 50 51 49 54 52 48 43 41 45 46 43 44 46 59 57 63
43 43 46 49 52 53 55 60 62 68 69 65 68 61 56 52 55 54 57 57 51 47 43 45 45 45 42 46 48 49 54 60
43 45 46 51 55 56 58 61 65 69 69 66 64 61 56 58 60 60 61 56 52 47 45 47 46 44 53 50 49 55 61 68
40 45 48 52 56 57 59 61 66 70 69 66 62 58 64 66 63 63 60 57 52 48 50 48 48 54 60 57 50 60 66 68
41 45 49 52 54 54 57 65 69 73 66 62 67 65 70 70 65 62 58 54 54 49 52 50 50 56 53 50 48 53 57 57
40 43 47 50 51 52 59 71 72 75 68 73 74 74 77 65 62 58 53 53 53 56 52 49 49 51 46 44 43 45 48 50
39 45 48 54 58 59 70 73 75 75 72 81 78 74 66 61 59 55 51 53 54 51 52 51 49 49 48 46 44 43 48 49

GFSFLT1_prec_cthk_024.txt.gz
RH
46 47 52 58 64 64 64 67 71 72 75 80 86 76 67 58 60 59 49 43 42 42 45 48 52 54 55 55 54 54 52 47
48 50 52 56 60 60 65 65 70 75 74 80 77 69 60 60 54 45 45 45 45 49 53 55 57 58 58 55 52 45 40 36
49 50 53 58 64 60 64 72 72 73 75 75 66 63 58 48 44 44 46 48 49 54 58 59 57 54 49 46 41 36 38 39
52 54 55 58 62 64 68 70 69 66 60 60 60 56 49 44 46 48 54 57 59 63 63 63 58 49 45 38 35 39 42 38
51 55 57 58 63 67 65 65 62 63 57 56 53 47 49 52 55 55 59 63 70 70 68 59 47 42 40 35 38 40 40 37
47 53 52 58 61 60 63 60 58 56 55 48 48 49 54 56 58 61 64 70 70 63 52 40 34 31 31 35 39 42 40 38
47 52 52 56 56 55 55 55 53 51 50 49 48 49 51 52 57 63 69 73 61 49 39 33 30 32 33 39 44 42 40 39
47 50 49 51 50 51 52 50 51 49 48 48 48 51 52 55 61 66 67 59 51 46 40 33 33 34 39 43 41 41 42 43
45 46 47 46 47 48 49 51 50 48 47 47 49 53 61 62 62 59 58 60 53 47 37 35 35 41 44 47 42 39 49 52
43 44 44 45 48 50 51 52 50 49 49 50 54 59 65 67 61 55 52 51 49 39 38 39 43 43 43 47 38 50 59 56
39 39 40 42 46 49 50 51 51 51 50 55 61 63 67 68 57 55 60 55 41 41 44 47 48 45 43 47 49 50 48 53
34 36 39 42 46 47 50 52 50 50 55 59 63 66 68 60 58 62 61 50 45 51 52 50 49 49 55 56 51 45 48 50
35 37 39 41 45 47 49 51 50 53 58 63 65 65 69 61 62 65 58 52 54 58 54 51 51 53 55 48 42 50 47 46
40 41 41 40 44 48 50 52 53 57 62 67 69 66 73 73 64 64 59 57 62 62 55 53 53 55 58 53 56 59 51 48
42 49 47 46 48 51 54 54 56 60 66 73 68 73 77 71 66 62 66 69 67 65 58 55 55 56 57 56 65 62 50 48
44 51 55 56 52 54 57 57 58 62 72 71 76 76 69 76 66 76 77 65 66 64 64 58 59 60 59 60 62 58 48 47
39 43 51 54 56 60 60 58 58 67 74 76 75 76 77 73 82 74 63 70 69 66 68 65 65 65 60 52 54 43 39 42
34 42 47 52 56 57 58 61 65 74 75 76 78 80 80 86 81 66 75 68 69 73 69 66 64 66 50 51 47 38 37 40
38 40 45 48 53 60 63 67 70 76 77 80 82 86 85 82 74 77 70 72 68 64 66 67 68 64 53 48 51 45 43 42

GFSFLT1_prec_cthk_027.txt.gz
RH
38 39 40 45 49 60 61 56 61 68 70 70 68 67 68 59 53 48 51 48 45 41 40 41 49 53 56 56 54 47 39 33
39 41 44 44 47 54 52 61 66 64 65 63 66 65 62 55 50 49 46 44 42 43 45 51 58 60 61 56 45 35 32 29
42 42 45 42 48 52 61 67 68 62 60 63 63 57 54 50 46 42 40 42 48 52 56 59 62 57 49 40 33 31 31 32
41 44 44 44 46 53 62 69 65 60 63 64 57 54 50 44 42 41 44 48 53 60 62 61 58 51 45 38 34 32 33 34
39 41 47 47 49 56 68 65 58 60 59 59 54 52 48 46 43 46 50 54 57 60 63 59 52 42 40 37 35 34 36 41
45 46 46 51 52 53 55 56 59 57 55 56 57 57 51 48 49 51 53 54 56 57 60 56 52 47 38 33 34 38 42 43
50 50 50 50 51 54 55 55 54 54 55 55 53 51 47 48 52 57 62 65 62 53 52 44 42 39 35 35 39 43 46 46
49 48 48 50 50 51 56 53 53 55 54 52 51 50 51 56 61 63 65 68 62 50 43 47 51 39 36 41 45 45 46 47
45 44 47 48 50 54 53 50 51 53 52 54 56 57 56 59 61 67 66 67 54 46 48 60 52 38 41 46 46 48 48 47
41 43 44 47 50 50 47 47 47 48 51 56 59 60 61 64 68 70 66 62 54 52 53 51 44 42 44 47 49 50 50 53
38 39 39 40 43 43 43 44 46 47 51 55 61 65 65 67 69 72 64 67 63 54 50 46 48 52 55 57 57 56 60 59
35 34 33 33 34 38 42 46 48 50 55 59 62 64 67 72 72 70 73 64 76 62 52 54 57 57 57 59 61 59 57 58
35 34 33 33 34 37 41 46 50 53 55 60 65 71 75 73 71 72 71 69 61 58 61 63 57 57 60 58 55 60 65 72
39 38 36 35 39 45 51 53 54 55 58 64 70 73 71 71 73 76 75 74 69 74 63 65 64 64 61 66 68 73 72 71
41 44 45 48 54 57 61 63 62 61 62 62 70 71 71 76 79 74 78 75 79 65 68 71 72 74 69 66 73 75 74 65
45 47 53 61 61 69 67 67 66 65 59 62 66 70 75 74 75 78 81 82 81 72 73 78 79 72 71 73 75 69 66 58
30 38 48 53 51 64 68 65 61 59 61 69 76 75 71 76 82 86 89 81 75 75 78 79 77 73 76 69 62 63 56 40
32 37 41 46 50 58 55 58 61 69 73 78 75 75 77 84 91 92 83 79 79 80 79 73 77 75 70 61 63 55 49 48
36 37 41 43 46 49 59 70 76 76 75 76 78 81 85 89 90 86 89 84 79 78 78 74 72 68 61 56 54 52 54 56

GFSFLT1_prec_cthk_030.txt.gz
RH
40 45 46 45 40 41 46 44 52 56 59 61 58 57 54 55 51 46 41 41 40 38 38 39 38 40 47 53 56 55 48 37
42 41 45 48 47 48 47 51 62 61 59 54 55 52 54 52 47 41 38 37 38 38 39 41 48 55 56 55 51 46 38 34
42 39 40 41 46 49 53 61 65 59 55 56 56 58 61 51 43 41 40 39 40 42 48 54 60 63 61 49 49 43 40 38
45 40 39 39 43 47 53 66 68 60 59 60 60 63 57 51 45 43 42 44 48 52 56 60 58 56 55 58 47 44 41 38
40 41 40 40 43 56 63 65 63 60 66 63 60 58 51 48 46 46 47 50 53 55 59 65 60 53 46 43 43 44 40 42
41 41 42 44 46 52 61 59 60 62 59 60 60 57 54 51 52 52 53 55 58 59 61 65 57 45 39 41 49 48 43 44
49 52 52 53 58 55 63 63 56 60 60 60 59 57 56 54 57 57 59 64 65 70 67 62 54 45 45 47 44 46 45 47
53 54 58 60 61 64 65 55 55 59 58 59 61 60 63 66 67 70 73 72 71 79 72 60 59 55 52 44 44 45 49 55
45 50 55 59 64 57 58 53 50 50 57 59 61 66 69 72 73 74 74 75 76 77 61 70 52 51 59 56 49 50 53 55
39 44 50 51 58 54 51 52 49 51 57 64 67 70 72 75 75 78 76 74 81 76 69 68 53 59 50 50 51 57 57 58
38 38 39 41 43 47 49 48 50 52 60 66 70 72 74 75 76 75 80 82 68 71 66 63 57 61 54 58 57 58 64 64
32 32 32 32 38 40 42 43 48 52 57 64 70 74 75 79 81 78 72 70 79 77 74 64 66 62 60 60 64 63 68 72
31 30 31 34 36 38 38 42 49 54 55 59 64 69 75 77 70 69 70 75 79 72 71 70 64 65 66 68 69 70 70 74
34 37 39 39 38 39 45 44 49 60 70 73 71 71 68 62 61 65 71 72 68 71 76 72 69 73 74 76 68 68 78 79
41 44 43 42 42 50 52 63 65 79 78 73 69 67 63 65 67 70 71 70 73 78 79 71 75 76 78 77 79 76 81 73
42 47 44 45 50 53 56 65 77 76 73 69 66 68 70 71 70 71 73 76 81 85 80 82 77 75 77 85 78 76 72 66
39 39 39 40 46 52 59 58 71 70 67 67 73 77 74 69 74 76 78 79 84 82 84 80 77 82 79 76 70 64 56 48
34 31 31 34 40 46 50 53 58 65 71 75 74 71 73 77 79 79 83 88 95 92 84 80 79 72 66 62 53 49 48 46
34 33 33 36 39 45 52 59 75 78 79 77 76 77 75 75 75 82 91 96 92 83 79 71 65 58 52 47 45 45 45 49

GFSFLT1_prec_cthk_033.txt.gz
RH
39 41 41 39 42 48 47 51 59 63 62 58 61 62 62 60 51 50 48 41 42 44 46 44 40 38 39 45 47 45 44 40
42 43 44 43 41 41 42 52 61 63 61 59 64 61 60 56 52 49 45 42 40 40 39 40 40 40 45 49 50 47 46 49
42 41 43 43 45 44 46 53 56 61 59 59 62 60 59 58 55 51 44 40 37 38 41 44 45 49 54 54 49 45 46 45
42 43 43 45 47 45 51 59 67 66 59 63 63 64 65 59 55 52 45 42 41 44 47 48 51 52 57 56 53 45 45 50
47 44 43 47 51 52 60 68 71 67 61 65 66 69 69 59 56 55 50 49 50 52 54 55 58 60 67 64 60 50 48 48
44 45 50 51 60 66 59 72 79 71 63 65 71 66 62 61 57 53 53 56 56 61 62 64 64 76 73 58 56 48 49 56
54 51 51 52 63 66 66 73 69 72 64 65 64 63 63 61 57 56 63 65 67 69 65 69 74 85 78 59 70 60 53 57
49 49 51 57 57 66 74 74 70 63 58 56 55 58 63 69 67 73 76 71 74 78 68 75 85 82 66 60 52 55 58 59
43 48 52 53 57 64 79 67 62 56 55 52 52 58 69 74 75 80 74 77 77 72 80 94 87 65 65 64 63 55 57 54
37 43 44 52 54 63 67 55 54 53 50 49 51 63 71 71 78 78 82 80 86 93 89 77 75 69 70 56 61 58 63 66
31 33 38 41 51 53 47 48 47 44 46 51 55 61 64 72 73 76 80 85 84 82 75 77 74 73 65 64 67 67 70 68
26 27 31 33 32 31 33 35 36 39 44 49 57 66 74 75 76 78 78 76 73 72 74 78 74 73 72 76 74 70 65 65
24 28 34 36 37 38 37 38 45 51 55 61 72 79 83 83 79 75 69 68 72 76 77 75 79 78 80 79 76 72 62 62
33 35 39 44 45 46 51 57 65 71 75 80 84 81 83 80 74 69 69 73 72 74 77 82 83 82 81 78 72 70 74 71
34 39 43 48 50 55 54 61 71 75 77 79 80 82 77 73 71 74 73 70 73 78 78 81 87 88 82 81 80 77 69 64
38 43 48 48 52 53 56 66 72 78 67 66 78 80 77 78 76 72 73 77 74 77 80 87 94 90 83 81 78 70 58 50
39 42 44 45 44 44 48 52 56 54 61 69 73 80 86 81 75 74 82 83 90 89 89 95 96 85 80 71 66 48 37 38
37 36 36 36 37 40 41 44 50 55 62 70 78 78 74 77 83 83 82 86 90 91 96 96 90 80 75 51 31 32 37 41
35 37 36 35 34 35 37 43 51 59 69 73 75 74 79 80 81 81 83 95 93 94 90 84 77 60 30 26 29 33 40 44

GFSFLT1_prec_cthk_036.txt.gz
RH
33 35 40 46 51 51 50 50 54 55 54 54 57 59 59 59 66 54 48 48 50 50 51 53 50 41 40 42 44 42 42 39
41 40 38 40 43 41 46 53 62 62 60 56 56 58 63 59 60 56 51 54 50 50 51 47 41 41 42 42 44 45 46 45
39 40 40 38 37 38 44 53 57 62 60 53 58 58 61 62 61 58 59 56 50 48 46 42 42 42 43 46 47 51 54 54
38 38 39 40 41 42 45 51 58 62 59 53 56 60 64 66 68 65 59 56 49 46 44 44 45 48 48 50 58 64 68 69
42 43 42 44 48 49 50 55 62 63 60 56 56 62 67 74 74 63 59 56 52 49 52 54 55 59 57 63 66 74 81 69
44 43 49 52 51 52 59 59 62 71 70 66 63 73 78 79 75 75 64 62 60 64 65 62 67 72 71 87 87 83 72 64
45 49 61 61 57 56 58 73 72 72 74 71 62 62 69 74 73 74 72 75 73 75 73 72 76 85 90 86 89 81 65 60
45 48 56 56 61 62 61 81 84 80 78 73 70 66 73 73 74 74 80 83 82 80 82 85 84 84 92 86 72 63 66 58
37 46 49 46 60 61 61 74 80 83 81 73 67 64 66 68 73 78 86 83 85 84 81 77 94 83 86 74 69 66 63 66
33 35 37 45 52 53 54 73 81 71 60 63 59 58 62 63 74 86 82 81 79 78 78 78 84 75 74 73 68 68 69 66
29 32 30 32 36 40 40 63 54 50 54 51 48 52 59 68 76 79 85 84 82 75 81 77 76 78 73 73 73 74 73 70
29 28 26 23 26 30 36 39 40 44 44 47 55 63 73 82 84 86 84 79 76 81 80 83 79 72 75 78 80 78 75 77
31 26 27 31 32 37 40 49 55 61 66 70 75 82 82 84 82 78 76 73 81 83 79 71 74 78 78 84 87 79 77 73
33 32 32 35 41 48 61 64 65 63 63 72 82 84 83 77 73 72 78 77 81 82 71 82 89 85 87 93 83 78 78 76
29 31 34 39 48 58 59 62 59 60 67 73 77 78 73 74 72 75 76 81 83 79 80 88 84 88 97 93 86 81 77 70
32 35 38 43 50 52 54 53 52 51 60 64 68 68 67 70 75 77 78 81 75 78 90 80 86 96 97 94 83 71 64 48
40 40 41 44 45 44 45 43 45 50 53 57 59 66 69 76 82 85 81 72 76 91 91 97 97 97 95 93 80 64 43 27
38 37 37 36 34 34 34 36 38 42 47 52 58 71 78 82 80 80 79 87 93 97 95 93 92 94 89 83 56 35 24 27
37 36 35 33 33 32 32 33 37 43 52 59 67 78 80 81 77 78 91 92 93 97 95 91 91 84 66 44 29 23 25 28

GFSFLT1_prec_cthk_042.txt.gz
RH
55 58 56 60 63 61 59 56 63 66 61 55 56 54 58 62 65 67 68 72 74 62 55 49 47 47 46 47 40 38 43 47
48 53 58 60 60 61 61 61 59 65 63 57 51 51 57 60 59 63 67 69 57 54 55 51 48 47 47 49 47 49 51 52
42 56 63 57 58 61 66 67 69 67 70 66 59 57 55 59 64 68 66 59 62 59 57 54 53 55 59 56 55 55 56 63
44 44 49 51 50 52 57 64 68 72 78 70 66 62 66 65 68 74 76 72 76 74 70 69 69 68 66 62 61 63 65 72
41 40 40 38 41 45 47 52 59 63 69 77 73 68 65 67 67 73 76 82 84 77 75 77 77 73 68 67 69 73 78 83
36 38 39 41 40 44 49 53 59 64 66 69 73 74 73 74 74 79 80 78 79 83 84 84 81 78 76 76 79 82 83 87
43 38 45 48 48 50 53 55 59 60 72 71 80 84 84 79 71 67 68 71 76 82 90 89 88 82 85 85 85 84 85 80
56 53 48 52 57 62 63 61 68 67 84 77 82 84 90 86 85 81 71 69 77 90 91 87 88 90 91 90 88 91 83 83
51 54 59 56 58 60 64 66 69 75 72 75 90 84 85 88 88 79 77 71 79 83 88 88 91 91 88 88 85 80 78 75
43 46 49 53 57 60 66 68 70 75 76 70 77 69 75 72 73 73 70 76 85 88 91 92 92 93 88 83 76 84 88 76
39 35 33 36 43 49 58 67 68 68 67 60 71 60 61 64 66 64 72 81 86 91 93 94 93 87 81 73 83 88 91 92
38 34 29 32 34 40 46 46 48 52 54 54 50 51 65 70 70 73 76 82 90 95 98 94 88 79 70 79 86 87 95 90
40 39 40 39 35 36 37 40 43 45 49 47 49 65 67 68 66 75 83 88 90 95 91 81 81 75 83 82 85 90 91 96
30 33 36 36 40 39 38 36 40 43 49 58 64 64 62 56 53 56 65 79 78 84 79 75 78 85 85 79 84 94 98 97
29 31 32 38 40 41 43 44 45 50 56 59 58 57 55 55 53 59 65 68 74 71 69 81 84 90 96 85 97 97 97 96
38 39 43 45 48 48 50 50 52 53 53 53 52 52 53 60 61 63 63 64 65 66 78 83 82 90 91 90 92 92 92 92
42 44 49 53 55 54 54 55 54 54 52 51 50 48 46 48 50 54 57 62 64 75 71 76 85 85 83 89 89 89 87 83
47 51 51 51 50 53 50 49 47 44 40 39 39 38 41 47 52 57 60 64 64 72 77 83 89 89 88 88 85 78 68 45
48 48 46 45 44 42 41 40 39 38 37 36 39 44 48 51 53 56 60 65 71 74 79 85 86 85 79 70 58 42 34 31

GFSFLT1_prec_cthk_045.txt.gz
RH
55 57 58 55 53 53 56 64 76 70 62 58 54 51 56 70 73 71 70 65 64 74 78 62 55 53 50 50 48 47 46 46
56 54 58 60 60 59 58 57 64 70 64 59 56 55 57 65 69 71 72 72 71 75 66 59 58 56 53 51 57 57 53 53
47 57 58 60 58 61 60 62 66 73 71 62 55 51 50 53 58 66 68 70 71 63 64 64 66 66 63 60 64 66 58 58
49 55 58 55 57 60 62 64 64 65 72 70 66 57 57 55 63 67 67 71 71 71 79 80 79 79 75 71 68 68 64 67
40 44 48 51 52 54 57 61 62 62 65 71 72 68 71 69 65 66 70 80 82 82 87 86 83 86 83 80 78 72 69 75
38 38 38 43 46 45 46 51 56 61 62 62 72 75 77 76 72 72 72 78 86 83 80 81 85 88 90 87 80 76 80 81
47 40 38 38 39 40 46 50 53 57 67 66 70 74 74 84 90 92 77 76 76 76 76 79 85 91 93 91 83 81 84 81
53 54 53 47 43 41 49 56 58 62 70 79 71 72 71 77 94 94 86 87 88 89 83 79 84 87 89 91 88 89 80 83
55 56 58 62 63 62 60 62 65 67 77 81 72 77 70 66 77 88 87 85 89 91 85 81 89 89 92 93 94 86 87 88
50 54 58 62 66 66 66 71 74 74 75 85 85 82 70 55 57 71 76 77 78 75 79 86 89 93 95 95 91 89 85 78
46 49 57 60 57 61 61 66 70 72 69 78 73 72 60 51 52 67 72 74 75 81 84 88 91 92 96 96 89 88 80 79
46 48 48 48 47 50 50 57 64 62 61 66 65 63 58 56 58 73 70 69 68 74 81 83 84 89 93 86 76 74 77 84
46 42 41 42 39 44 47 48 57 61 57 53 59 63 65 57 69 64 63 60 56 58 64 77 80 79 94 78 73 80 87 97
35 38 42 44 44 46 53 57 56 55 59 58 57 57 63 65 62 60 60 59 59 62 67 72 70 75 74 70 80 90 93 97
37 38 37 36 37 39 43 46 50 54 54 58 60 57 61 64 63 60 64 63 62 68 70 72 79 76 71 81 87 91 86 88
34 41 42 39 41 45 48 46 49 53 58 61 62 63 62 61 59 57 61 63 65 65 73 74 73 73 81 79 83 83 87 92
36 45 50 49 50 53 53 57 62 66 64 64 62 60 56 58 57 51 49 50 53 57 63 65 69 73 73 82 84 87 88 79
38 42 49 54 60 62 64 68 66 65 60 59 55 49 45 44 42 43 48 51 53 55 62 67 69 74 76 77 77 72 67 59
40 45 49 54 59 62 59 57 56 53 49 46 43 41 39 40 44 45 45 47 51 55 61 64 67 68 66 61 56 51 44 41

GFSFLT1_prec_cthk_048.txt.gz
RH
58 54 52 56 64 74 80 76 71 67 72 72 71 70 66 61 63 63 67 63 63 68 72 81 64 56 53 51 50 49 52 55
50 49 51 49 46 53 59 68 71 70 61 61 63 58 59 59 60 60 63 63 61 61 72 79 63 54 54 56 55 56 62 64
47 47 52 49 48 47 50 57 67 71 70 58 51 46 45 46 56 64 73 77 68 62 66 60 59 63 68 67 69 71 72 69
45 49 49 52 53 51 52 53 55 59 60 52 60 55 51 47 50 55 59 64 71 67 63 65 71 77 79 81 82 81 80 77
39 42 47 49 48 50 50 52 54 54 57 63 59 65 59 58 56 64 61 63 72 77 82 81 84 86 86 83 85 88 88 80
37 38 41 44 45 45 46 47 47 51 53 67 70 71 61 65 72 72 63 68 72 80 84 84 83 80 88 91 92 91 93 87
45 45 47 47 46 43 40 43 48 54 58 61 69 83 76 81 86 82 84 87 82 82 84 83 79 82 86 91 91 91 92 92
45 49 50 49 48 45 44 45 50 57 60 64 69 77 82 80 80 74 80 91 95 95 87 89 91 91 89 95 92 93 95 91
49 52 51 47 47 50 49 52 56 60 61 68 77 67 66 70 73 69 63 74 78 86 90 88 91 86 87 92 94 93 96 96
56 56 57 52 50 48 51 55 58 62 62 69 76 65 75 74 69 63 55 59 79 88 84 82 82 86 92 92 86 91 98 97
47 54 59 59 59 61 52 53 60 66 63 61 74 77 66 66 65 62 56 62 84 74 69 71 69 68 69 75 79 82 86 90
39 46 60 67 70 69 65 52 57 64 65 64 69 75 73 69 66 68 62 72 70 61 62 60 59 58 63 68 74 72 73 76
35 40 46 55 60 65 64 63 64 80 72 73 78 76 69 65 72 71 73 71 63 62 61 63 62 64 71 76 73 73 74 70
38 37 37 39 40 44 56 61 60 69 71 70 74 69 65 63 67 74 65 66 66 62 56 61 64 66 71 72 82 79 68 70
26 35 38 37 35 38 41 44 47 54 61 60 62 60 66 64 61 64 68 69 65 60 59 62 62 63 62 73 68 73 73 77
30 25 42 40 38 38 39 40 43 52 64 60 55 62 65 68 70 69 65 60 58 60 59 55 56 62 68 70 68 72 76 79
29 21 39 43 43 43 40 43 49 54 52 59 64 64 66 66 60 58 59 58 50 47 50 56 57 58 65 69 72 76 76 74
36 33 44 46 48 48 49 49 55 58 63 68 68 66 64 61 57 49 45 41 43 47 49 53 58 61 67 69 70 70 65 58
36 41 43 53 49 51 54 56 60 66 67 66 65 61 53 47 44 41 40 42 44 46 50 55 60 62 63 62 57 49 44 38

GFSFLT1_prec_cthk_051.txt.gz
RH
50 50 52 66 82 81 79 79 78 82 85 87 88 83 74 75 76 68 65 63 65 64 68 74 65 66 58 53 51 50 50 47
45 44 43 49 54 64 68 70 70 71 73 67 64 63 65 63 60 58 58 56 60 65 68 69 75 77 57 58 59 60 60 58
44 44 40 43 46 50 58 63 62 58 54 48 52 53 57 57 53 51 55 60 64 67 66 69 67 70 65 70 73 72 73 76
39 38 40 37 40 41 43 45 47 46 43 46 50 58 56 52 49 47 51 56 70 79 68 64 60 69 83 81 83 85 85 83
30 35 36 35 34 35 38 40 43 45 47 46 47 49 52 51 46 50 55 65 63 65 71 75 67 72 86 90 89 87 90 87
40 39 38 36 36 34 36 37 38 40 43 47 54 62 56 55 58 61 70 69 79 83 70 79 86 87 86 91 89 87 87 90
40 41 45 46 44 38 37 36 37 40 42 48 59 70 80 77 68 73 79 90 88 85 91 91 80 90 90 87 90 88 92 95
45 42 46 46 49 45 42 41 41 45 49 50 58 74 73 75 71 74 82 75 75 79 88 93 90 86 86 86 89 90 91 97
41 44 43 43 39 42 45 46 48 51 56 57 66 75 73 71 78 71 69 73 65 71 78 82 82 86 85 78 77 82 88 86
40 42 42 44 44 39 40 46 47 50 52 56 62 66 67 74 71 76 69 68 66 60 80 84 71 71 67 67 65 67 66 71
42 40 40 39 40 49 57 56 48 53 60 63 64 65 64 66 74 68 65 64 70 64 77 74 63 65 64 64 66 65 76 70
44 45 42 41 48 60 65 69 91 81 71 67 70 71 76 74 87 78 74 77 78 72 76 68 67 65 61 61 65 74 78 68
29 33 43 46 52 61 69 71 71 59 56 68 80 78 91 78 94 78 71 76 82 76 68 66 68 63 61 64 72 64 66 79
29 25 26 32 48 54 55 60 57 58 68 89 85 88 85 76 67 64 64 70 68 68 68 66 62 60 62 63 65 69 61 74
34 31 27 19 26 34 42 48 51 60 71 65 59 60 64 56 58 59 65 69 71 67 67 62 59 62 61 57 60 66 66 75
37 36 34 30 21 22 34 45 50 54 51 43 43 51 51 53 60 63 66 68 69 64 59 59 58 55 54 59 64 66 72 71
32 34 32 32 30 23 23 30 34 35 36 43 43 45 54 58 63 67 70 68 62 60 56 49 50 54 57 62 63 66 71 75
29 28 33 39 42 42 37 42 44 43 40 42 46 52 62 64 65 66 65 59 50 46 45 48 50 53 56 60 63 68 67 63
33 30 30 32 37 43 42 44 46 48 51 54 60 63 63 64 62 57 49 43 41 40 42 45 47 50 54 59 62 57 50 47

GFSFLT1_prec_cthk_054.txt.gz
RH
40 48 64 80 79 78 82 86 87 90 92 86 81 78 81 86 81 76 73 76 80 68 68 70 73 62 61 56 52 50 52 52
38 42 48 61 74 78 77 76 82 89 86 82 78 77 80 79 72 71 70 69 65 64 68 70 79 80 74 63 55 58 61 66
40 36 40 43 56 60 62 66 69 65 69 77 73 69 68 64 62 62 63 62 61 62 63 67 73 74 75 67 60 64 71 76
36 36 35 37 41 49 55 57 54 57 59 60 57 56 55 52 51 51 56 58 59 59 64 63 66 66 63 71 76 75 81 85
32 33 32 32 34 39 43 46 45 46 48 44 45 45 45 46 46 46 43 42 43 49 60 73 79 73 62 69 79 86 91 89
37 40 37 29 31 34 36 38 39 40 41 41 43 46 47 48 49 48 48 50 57 69 75 75 77 84 87 86 87 88 91 92
40 37 42 42 36 32 33 33 35 38 37 38 43 50 54 53 53 59 61 61 69 72 80 84 86 86 88 93 97 92 94 91
45 43 40 44 43 41 38 37 39 42 45 49 52 57 64 71 75 71 70 71 71 66 71 88 90 87 87 91 90 90 86 85
48 50 49 43 42 43 45 44 43 44 46 49 53 62 71 73 73 77 73 68 74 68 69 71 82 78 81 78 81 78 70 65
46 49 48 52 49 47 46 43 41 40 43 46 51 59 65 70 75 73 74 64 57 72 70 68 75 78 67 66 69 68 67 65
40 44 49 47 47 51 54 53 50 46 47 55 63 66 67 68 66 68 84 82 81 75 75 74 78 76 64 66 66 61 58 61
34 39 41 44 45 51 58 65 73 75 75 66 70 74 78 79 79 71 81 92 91 91 87 80 78 71 66 65 62 57 60 65
33 32 35 38 40 45 48 56 62 68 67 69 59 72 84 89 93 94 86 70 81 93 88 86 76 69 70 63 61 59 64 60
37 35 33 34 34 40 44 44 46 56 67 74 62 69 66 85 83 74 73 68 68 78 77 74 73 69 63 60 58 60 67 59
39 38 38 36 33 30 31 34 38 48 56 61 59 60 58 68 70 66 62 65 68 71 69 69 70 62 57 60 60 60 61 60
43 39 44 35 38 37 35 31 26 33 41 48 56 54 60 66 68 65 65 65 68 69 71 70 60 58 59 59 59 58 55 59
42 40 39 32 29 25 26 31 28 31 37 45 51 53 62 68 63 67 70 71 73 73 67 62 59 59 53 52 51 54 58 65
40 39 35 31 31 28 25 30 37 40 48 51 50 54 55 59 65 73 72 71 72 67 66 62 56 48 47 50 55 57 60 64
38 41 40 35 32 30 29 28 36 42 44 49 52 54 58 61 65 73 75 74 69 64 55 48 45 48 51 54 55 60 64 65

GFSFLT1_prec_cthk_057.txt.gz
RH
34 47 68 77 83 82 87 89 86 93 88 87 85 86 83 81 85 84 84 82 81 81 78 72 75 84 84 64 54 54 54 56
36 38 56 71 77 81 81 89 91 92 88 88 93 94 90 84 83 95 90 84 80 80 76 73 74 73 68 63 56 55 57 60
34 32 46 58 64 70 74 81 90 93 94 95 94 96 94 92 90 90 87 86 81 80 73 69 71 77 75 76 69 60 62 66
33 31 33 45 54 56 57 62 67 78 85 88 85 81 78 77 78 81 78 73 72 69 67 66 67 71 75 77 73 69 71 73
27 27 27 29 38 45 45 47 55 59 62 64 64 64 63 67 68 71 67 64 65 66 66 64 63 65 68 68 65 70 76 83
35 33 27 24 28 33 36 37 42 47 50 54 56 54 54 55 59 59 55 54 52 54 56 55 60 70 85 82 80 79 80 84
36 39 38 33 25 27 31 32 32 38 44 49 51 52 55 55 56 56 56 58 56 59 59 64 72 82 85 85 90 90 95 96
36 36 37 38 38 34 34 31 30 33 35 39 45 52 58 59 59 57 58 58 59 59 56 61 81 87 92 94 91 89 90 89
41 40 41 37 37 36 38 36 37 39 40 40 41 46 51 54 60 64 60 63 66 64 72 74 68 85 85 83 81 79 77 78
41 44 45 47 45 42 40 38 38 38 39 42 46 48 54 57 63 70 72 75 77 70 78 75 72 75 88 80 73 71 74 67
42 46 49 53 51 50 51 50 44 42 40 40 41 48 53 59 66 71 76 77 85 86 76 78 83 83 83 85 76 70 67 66
35 37 42 46 51 52 57 60 62 61 59 58 61 59 59 66 65 70 73 76 82 92 92 87 86 88 89 88 81 72 69 66
32 33 36 39 43 47 45 52 60 67 68 72 75 78 72 74 77 79 84 84 79 87 92 87 85 89 89 89 80 76 70 66
37 35 40 39 35 35 38 41 43 47 56 70 72 74 77 71 64 73 92 78 70 70 78 79 88 89 83 85 78 72 65 62
40 37 36 38 37 35 36 36 35 34 36 49 53 55 67 68 67 65 85 83 72 64 67 78 81 80 81 79 75 68 66 65
40 43 39 40 42 38 32 30 30 30 30 34 38 45 54 68 62 63 68 78 68 70 71 77 80 77 73 71 68 62 62 57
40 40 42 38 45 42 36 30 28 27 30 33 35 42 53 63 68 64 70 67 70 73 72 74 75 74 70 68 64 61 56 58
43 42 44 39 40 40 40 34 33 30 26 32 36 44 54 64 66 71 73 71 75 74 74 77 78 78 76 70 63 55 54 57
38 40 44 40 41 39 39 38 35 33 28 35 42 45 52 55 58 61 61 67 70 79 85 83 86 79 70 60 53 52 54 57

GFSFLT1_prec_cthk_060.txt.gz
RH
39 45 58 77 83 86 84 87 86 95 85 86 83 81 80 84 88 85 84 81 80 80 80 78 79 73 70 72 70 70 62 64
37 43 56 71 79 87 90 88 90 91 89 85 80 83 82 82 83 82 82 85 82 83 83 79 78 76 78 78 75 70 64 63
38 37 49 60 67 77 82 86 88 88 90 94 86 85 88 83 85 84 86 84 86 85 82 82 83 82 82 77 74 67 65 59
40 34 38 51 55 57 67 76 85 93 92 94 91 87 87 86 92 88 85 87 93 89 86 89 84 79 74 70 69 68 66 58
31 30 28 34 47 50 51 57 67 81 92 96 94 89 88 91 91 89 90 86 93 81 86 82 74 70 70 74 73 74 74 71
36 34 25 25 31 37 40 48 51 59 67 71 74 75 77 81 79 77 77 80 81 77 76 73 69 67 70 67 67 71 74 75
34 40 36 24 23 28 32 35 44 47 49 52 55 58 57 61 63 62 64 63 65 65 67 65 65 65 64 61 70 86 91 91
37 34 37 37 30 26 29 30 33 40 43 50 54 51 49 50 50 53 54 55 56 60 65 69 69 69 67 68 86 90 95 97
39 39 38 37 35 36 33 35 35 38 40 42 44 50 54 54 58 57 55 58 63 66 66 64 59 57 58 78 88 95 91 90
33 37 40 42 41 39 37 38 38 39 42 42 42 45 49 52 55 59 60 59 60 61 63 59 62 67 64 75 89 91 88 79
37 34 39 44 49 49 46 44 41 40 39 40 42 45 47 53 55 56 59 64 64 64 68 74 75 80 84 80 79 88 90 82
36 34 35 42 48 50 51 51 52 51 49 49 50 50 56 55 54 54 69 71 73 81 86 90 92 90 90 92 94 92 90 90
30 29 31 33 36 36 43 53 54 57 60 62 61 64 62 69 69 65 69 73 78 80 83 86 95 92 87 89 88 92 94 92
32 33 36 38 36 35 33 36 38 45 53 54 55 59 62 63 70 69 68 67 75 84 89 84 83 89 90 89 90 98 95 89
35 34 36 36 37 34 33 33 33 35 37 39 38 41 48 52 62 73 75 73 72 84 75 73 73 73 87 88 86 87 86 82
38 40 38 37 39 38 39 35 31 32 31 31 27 30 37 44 47 59 74 80 69 74 88 81 72 75 76 83 85 86 75 73
50 38 35 35 37 38 38 38 38 36 28 26 26 26 35 40 48 55 68 74 75 73 76 80 76 76 77 78 81 75 74 74
52 49 42 39 36 41 40 40 41 38 34 29 29 25 30 36 45 53 60 71 75 77 79 76 78 80 78 84 85 86 85 80
44 45 45 42 37 41 47 45 47 41 38 34 32 26 33 41 46 53 62 68 73 79 76 78 80 80 84 88 88 86 77 75

GFSFLT1_prec_cthk_063.txt.gz
RH
37 38 49 64 79 78 76 91 89 91 91 88 88 89 92 93 90 87 82 86 86 86 86 85 83 80 77 75 75 75 73 68
39 37 47 62 81 80 87 90 97 84 92 84 80 88 87 92 92 89 86 86 89 89 86 85 82 82 79 77 82 82 73 68
41 37 42 53 74 80 85 88 87 89 92 90 90 90 83 85 91 92 87 88 89 88 86 83 85 84 81 83 82 81 73 68
33 32 35 48 51 65 77 83 85 83 89 94 90 90 88 87 90 90 89 90 90 88 85 86 90 86 85 83 82 82 74 72
30 30 28 35 46 47 53 61 72 83 90 92 93 91 86 88 90 94 90 91 87 89 87 86 92 89 86 87 84 77 70 70
32 35 25 23 33 38 40 49 58 70 78 92 94 87 87 90 89 90 91 92 91 90 88 90 91 84 86 80 74 74 75 76
33 36 37 23 23 29 32 38 46 50 59 67 74 73 74 77 82 82 86 87 87 84 83 86 84 84 82 77 73 71 71 69
42 34 34 35 25 25 30 33 36 41 48 53 57 60 62 63 67 69 76 76 79 77 77 76 75 75 74 72 69 67 65 69
37 37 32 31 34 30 30 31 33 35 39 46 53 54 53 55 58 58 63 66 66 65 66 68 66 66 67 68 68 69 69 75
32 37 38 37 33 32 32 32 33 37 40 42 45 47 50 51 52 59 61 61 61 62 62 61 64 67 66 64 63 66 70 78
35 36 35 36 39 39 38 36 35 35 38 41 42 43 45 48 51 55 60 61 64 63 64 64 66 67 62 60 61 65 70 79
39 42 41 39 41 44 46 43 42 43 42 44 45 48 51 53 54 58 56 58 58 58 60 61 62 61 63 67 76 91 94 92
36 39 39 37 38 40 40 43 43 45 49 52 53 51 53 59 60 63 63 61 64 66 70 71 70 75 83 92 92 92 95 95
40 35 34 35 39 41 42 41 43 45 48 48 49 52 51 53 60 59 66 68 62 64 68 66 77 81 89 92 94 93 98 95
44 41 36 39 42 41 40 34 36 37 38 38 37 37 39 41 41 50 56 66 70 73 73 69 66 76 78 83 84 92 95 95
40 44 45 44 42 41 42 38 39 38 37 37 31 28 31 36 38 40 41 49 65 76 83 83 72 74 77 82 80 80 81 85
35 42 44 44 45 44 43 41 43 41 40 35 35 34 30 25 30 36 44 47 57 67 73 84 84 81 85 82 86 87 84 87
37 38 39 48 45 41 42 43 45 45 42 43 42 39 36 33 29 33 35 40 47 55 66 81 82 86 86 87 82 82 82 78
48 43 39 39 42 43 42 41 45 44 44 43 42 44 41 36 34 33 40 48 51 55 62 71 77 79 86 86 86 88 86 85

GFSFLT1_prec_cthk_069.txt.gz
RH
34 29 33 29 48 68 73 75 88 91 95 95 97 96 98 98 95 91 88 84 78 76 81 82 77 75 79 82 82 83 82 78
35 28 31 32 47 69 74 80 83 87 93 95 94 96 98 98 95 89 87 86 82 80 84 81 78 80 83 87 85 86 84 83
36 27 27 32 46 65 74 76 76 89 89 91 92 94 96 96 94 90 91 85 79 79 80 79 82 83 89 87 85 82 84 84
38 30 27 30 41 56 72 73 72 83 82 79 84 86 91 91 90 90 87 84 84 85 83 83 81 83 89 87 84 81 81 82
37 31 29 24 32 45 54 65 75 79 82 82 81 87 84 84 85 89 87 80 80 81 85 85 86 88 89 86 84 82 86 92
38 31 30 27 27 31 39 49 55 61 69 79 81 83 93 88 86 87 90 83 83 85 87 88 87 87 88 86 86 83 84 90
42 37 31 31 31 27 30 36 44 50 58 70 84 87 88 87 88 88 88 87 85 87 86 89 90 92 88 90 92 90 92 89
44 41 34 31 31 30 29 30 33 40 46 56 70 85 87 88 89 94 86 83 84 85 89 89 93 91 94 89 90 89 91 85
44 41 37 33 28 29 31 31 33 36 39 44 51 58 66 67 71 76 78 74 76 81 87 91 92 93 90 92 85 87 80 79
42 41 38 34 31 29 29 30 36 35 37 40 45 49 52 55 56 58 61 62 68 70 74 77 86 87 85 85 83 79 78 78
40 40 40 37 33 34 33 32 31 37 37 39 42 45 47 50 49 48 49 51 56 61 67 70 73 73 74 74 72 73 76 79
42 43 42 42 41 37 36 34 33 37 37 39 43 47 50 54 54 54 54 49 49 54 56 58 62 66 67 68 66 69 72 73
43 46 47 46 47 43 38 37 37 40 42 38 38 41 46 51 55 60 62 63 62 64 66 63 57 59 62 62 65 65 67 70
44 47 49 48 50 50 45 40 40 40 42 43 42 40 40 42 46 50 55 57 58 63 68 67 68 71 70 68 67 68 69 70
49 49 49 50 49 49 50 44 45 47 47 46 44 43 43 44 45 45 46 44 46 50 52 59 64 66 70 68 70 72 73 71
52 52 52 54 50 50 49 47 47 48 49 47 42 47 49 49 47 47 47 45 45 45 46 46 49 52 55 62 63 66 72 77
54 53 57 57 58 55 53 53 49 51 49 46 47 46 48 50 48 46 45 44 43 43 42 45 46 47 49 51 55 62 69 75
53 54 55 56 57 56 57 57 58 54 51 52 51 52 49 46 46 44 43 42 45 42 40 38 36 41 44 47 51 56 60 65
64 58 53 56 56 55 54 56 57 60 58 57 55 55 52 51 51 51 54 52 48 49 50 49 46 40 41 44 51 61 74 75

GFSFLT1_prec_cthk_075.txt.gz
RH
39 39 38 30 26 32 42 54 60 68 74 83 90 90 89 91 90 91 88 91 86 89 83 80 79 73 76 75 75 68 63 60
40 41 38 29 26 33 48 58 69 72 75 77 85 91 96 97 97 95 91 88 88 89 84 84 83 86 79 78 81 70 66 69
42 44 35 30 26 30 50 63 71 71 73 76 85 90 93 96 96 98 95 93 90 89 88 89 88 93 93 90 79 70 72 76
41 43 36 31 24 27 43 61 68 69 75 76 83 87 91 95 96 96 96 93 94 92 91 91 90 93 94 93 79 74 76 81
38 39 37 30 24 26 37 51 64 70 74 77 76 73 84 88 92 96 95 95 92 90 87 91 95 92 91 90 79 79 79 78
34 34 36 30 25 23 30 40 50 59 65 71 71 74 77 80 86 86 89 87 86 87 87 86 88 87 84 80 74 79 79 82
33 35 37 32 27 27 25 32 38 44 50 57 62 71 75 76 80 81 79 80 82 83 79 79 78 79 78 77 74 80 83 85
33 36 36 35 28 25 28 30 35 38 42 46 53 63 74 77 77 79 79 77 77 79 83 78 76 77 79 81 80 82 86 88
33 34 35 36 29 26 28 29 32 36 39 43 47 52 66 76 78 76 77 79 82 82 81 75 72 74 77 79 82 83 84 88
33 33 35 35 31 27 24 28 31 32 37 40 45 48 51 58 67 73 71 71 74 71 68 69 71 76 84 85 85 84 84 88
34 33 35 33 32 28 29 29 27 30 33 36 41 44 47 49 51 53 57 59 59 62 64 66 70 69 76 80 86 88 88 88
37 36 37 33 34 31 33 34 33 30 31 34 39 42 48 50 49 47 50 52 51 52 58 59 61 65 64 67 70 75 78 81
42 39 41 38 37 37 36 36 35 34 33 36 37 38 41 44 47 50 55 58 60 60 62 59 60 64 64 63 61 67 70 71
52 46 45 44 43 43 44 42 39 37 39 37 38 39 40 41 43 45 47 48 49 51 54 57 61 63 65 62 60 60 58 60
60 61 55 47 46 45 47 49 50 46 39 40 41 43 42 41 44 45 44 46 47 47 47 47 47 47 48 51 56 63 64 65
62 63 65 63 62 53 50 50 50 52 50 43 44 46 47 48 46 45 47 48 50 52 52 51 50 47 44 44 44 45 48 50
66 66 64 64 67 73 69 62 55 54 53 52 51 49 49 51 53 52 51 50 53 56 54 54 53 50 45 44 47 46 45 44
65 67 72 72 69 68 66 65 68 69 63 59 58 58 57 54 54 54 55 57 60 58 58 57 53 50 51 55 58 60 59 56
65 66 65 70 70 68 70 68 68 68 74 76 75 73 66 61 60 58 55 57 59 62 64 65 63 57 60 61 63 65 63 62

GFSFLT1_prec_cthk_081.txt.gz
RH
39 38 39 36 39 44 40 30 26 45 52 60 77 87 97 96 98 96 99 99 91 80 63 58 62 66 59 59 65 61 58 58
40 43 41 39 41 44 39 28 32 52 62 73 77 85 97 99 99 95 93 96 90 72 67 66 68 68 63 55 64 63 60 62
41 42 43 43 43 44 39 27 34 55 61 69 76 83 96 99 99 97 96 96 87 81 75 75 70 68 64 60 63 62 67 67
42 39 42 44 43 44 37 23 32 53 60 68 76 89 95 99 99 98 97 95 91 90 84 79 73 73 75 69 66 64 63 64
41 39 42 44 41 45 36 21 29 52 60 67 76 81 92 97 99 97 97 96 94 93 94 88 82 80 75 71 70 67 71 69
42 41 39 45 41 43 34 20 27 44 54 61 68 72 87 95 99 98 98 97 97 96 96 91 87 80 81 80 79 79 77 76
43 44 43 46 44 42 34 22 25 34 43 50 58 65 73 85 97 99 98 98 98 99 98 97 92 87 86 88 88 84 81 80
39 40 42 45 42 42 32 24 26 32 35 41 48 54 66 73 84 97 98 98 98 98 98 96 95 90 90 89 92 89 90 91
36 37 42 44 42 41 29 25 26 32 36 37 41 48 57 70 76 83 91 93 94 97 95 96 95 87 88 92 94 94 93 95
42 42 49 45 45 42 29 23 24 31 34 37 39 45 53 66 75 78 79 80 82 86 89 90 87 84 82 88 89 89 93 93
46 46 50 44 46 44 32 25 24 27 32 34 36 40 47 58 70 75 76 78 82 85 90 91 91 89 90 82 84 92 94 93
46 51 53 46 47 45 36 28 26 27 32 34 35 36 41 49 58 63 68 67 63 67 77 85 85 83 83 81 83 87 86 92
53 55 58 54 47 46 39 32 32 30 32 36 37 38 40 42 45 49 50 50 51 53 56 61 65 66 69 71 73 74 75 75
62 61 58 56 53 52 47 41 40 40 39 40 42 42 42 41 45 48 53 56 59 62 65 66 64 66 66 68 69 72 73 71
65 67 69 64 62 63 55 54 53 51 48 45 45 45 45 44 45 46 51 54 55 54 54 55 55 56 58 60 63 65 66 65
71 71 74 73 70 72 68 62 61 61 61 60 58 55 52 50 50 51 51 51 52 56 57 57 58 59 59 60 62 62 60 59
80 79 82 82 76 75 72 70 69 69 71 69 71 70 67 63 62 61 61 61 61 58 56 55 56 57 61 66 72 70 67 63
83 84 83 84 83 80 78 77 75 75 74 75 76 78 78 73 72 71 71 72 73 72 72 71 70 69 69 68 68 68 68 65
81 78 80 80 79 76 75 76 77 77 76 79 81 82 81 81 81 80 80 81 81 82 82 83 85 82 85 83 82 83 80 75

GFSFLT1_prec_cthk_087.txt.gz
RH
17 21 23 24 26 32 41 45 52 41 49 48 40 51 64 71 80 83 89 92 93 93 94 97 99 97 94 68 74 69 68 65
20 21 23 25 25 31 39 44 45 41 49 46 37 56 64 72 79 86 91 96 98 97 97 97 96 94 77 56 64 64 65 64
21 25 26 24 24 34 39 49 42 45 48 42 37 56 68 78 84 90 93 96 98 98 96 95 91 94 75 62 64 67 67 57
24 26 24 24 29 35 44 51 40 45 47 33 44 64 71 80 88 97 98 97 98 97 96 98 94 92 75 66 70 76 76 72
27 26 26 32 37 40 51 49 43 45 43 26 48 68 73 79 87 99 98 98 99 98 98 98 92 86 70 65 73 73 74 69
29 27 36 40 42 44 51 49 45 45 34 26 45 62 69 76 86 99 98 98 98 99 98 93 87 75 73 68 74 79 76 73
33 35 42 42 45 46 46 50 47 45 26 30 42 52 60 70 84 97 99 99 97 94 90 88 82 80 77 66 73 77 74 71
37 40 43 46 46 46 44 51 47 44 25 34 41 45 52 63 76 89 97 98 98 96 97 94 92 87 71 71 72 75 76 79
42 44 46 51 46 47 44 49 50 41 28 38 41 44 49 58 73 86 99 97 95 92 94 96 88 85 84 83 80 74 77 86
47 47 48 50 46 45 45 50 51 34 31 40 42 45 50 55 66 81 93 97 97 96 96 91 94 94 96 91 87 81 78 84
51 49 51 53 52 47 49 51 51 30 33 40 42 43 48 55 65 78 87 95 99 99 94 95 96 96 96 96 91 87 87 88
57 59 56 58 53 48 53 54 47 30 33 38 41 42 45 54 63 76 87 84 86 90 90 94 95 96 96 97 96 90 89 88
70 64 62 61 51 49 56 56 42 32 34 37 41 43 43 52 59 68 79 82 81 83 88 90 88 92 95 92 94 88 85 80
73 68 67 65 62 58 59 57 39 34 33 37 39 42 44 47 53 61 67 71 73 68 64 66 70 81 89 89 89 84 82 79
79 75 72 69 69 68 64 56 39 37 35 38 40 41 42 45 49 52 55 56 57 59 59 60 62 65 67 69 73 71 70 72
85 81 78 76 74 76 71 63 45 44 44 44 45 46 46 46 47 48 51 54 56 57 58 59 60 61 62 63 64 66 67 68
88 84 81 80 78 81 75 71 58 56 56 54 53 54 53 52 53 53 52 51 51 52 54 56 58 60 59 59 60 62 62 62
91 87 84 83 82 85 84 79 72 68 68 63 63 66 67 68 67 67 66 64 61 60 61 61 65 64 64 65 67 69 70 71
94 92 90 88 89 92 87 87 91 89 86 84 80 79 80 80 82 81 80 81 81 79 78 77 78 77 77 79 82 85 87 86